SL-14 R/B

Satellite information

Favourite Embed

Satellite Type and Status

ROCKET BODYIN ORBIT

Key statistics

Satellite SL-14 R/B at a glance.

Uptime

14903

Days in orbit

Revolutions

≈ 12.6

Per day

Orbit

LEO

Low Earth Orbit

Inclination

82.6

Latest

Satellite identification and parameters

Extended collection of information and parameters for SL-14 R/B.

Object identification

Identified? True

Debris? False

Object name: SL-14 R/B

International designator: 1985-003G

Object number (NORAD): 15475

Object ID (CCSDS): 15475

Country: COMMONWEALTH OF INDEPENDENT STATES (CIS)

Current information (Y/N): Y

RCS size: LARGE

Orbital parameters

Period: 114.725 minutes

Inclination: 82.6158 deg

SMA: 7821.052 km

Apoapsis: 1471.891 km

Periapsis: 1413.942 km

RAAN: 23.2946 deg

Eccentricy: 0.0037047

Argument of periapsis: 350.0501 deg

Mean anomaly: 20.9756 deg

Mean motion: 12.55177175 rev/day

Mean motion (dot): 0.00000006 rev/day2

B* drag term: -0.000027439 1/REarth

Two-line elements (TLE)

Creation date: Nov. 2, 2025, 3:46 p.m.

Reference frame: TEME

Reference center: EARTH

Epoch: Nov. 2, 2025, 11:18 a.m. UTC

TLE line 0: 0 SL-14 R/B

TLE line 1: 1 15475U 85003G 25306.47083586 .00000006 00000-0 -27439-4 0 9991

TLE line 2: 2 15475 82.6158 23.2946 0037047 350.0501 20.9756 12.55177175869075

Live tracking on map

Real-time ground track for satellite SL-14 R/B.

In-orbit conjunctions

A list of the most updated potential collisions computed for object SL-14 R/B.

Target Orbit TCA Probability of collision Miss distance Type
COSMOS 736 LEO 2024-08-11 12:23:51 0.0001020579 38.0 (m) PAYLOAD

Associated space launch

Second generation store-dump military communications satellite

SL-14 R/B was lifted into orbit during the mission ‘Tsiklon-3 | Strela-3 1 to 6’, on board a Tsiklon-3 space rocket.

The launch took place on Jan. 15, 1985, 2:50 p.m. from 32/1.

For more information about the launch, click the button.

Launch to space Tsiklon-3 | Strela-3 1 to 6
Tsiklon-3 | Strela-3 1 to 6

Agency: N/A

Status: Launch Successful

Launch date: Jan. 15, 1985, 2:50 p.m. UTC

Rocket: Tsiklon-3

Launch pad: 32/1

Location: Plesetsk Cosmodrome, Russian Federation

...

Latest news about this satellite

There are no fresh news available about this satellite. Check back as we update our databases every day.


Newsletter sign-up

Weekly statistics, charts and insights to help you stay on top of the space industry.